Regional Weather Roundup
Issued by NWS Cleveland, OH

Home | Current Version | Previous Version | Text Only | Print | Product List | Glossary Off
Versions: 1 2 3 4 5 6 7 8 9 10 11 12 13 14 15 16 17 18 19 20 21 22 23 24 25 26 27 28 29 30 31 32 33 34 35 36 37 38 39 40 41 42 43 44 45 46 47 48 49 50

000
ASUS41 KCLE 271700
RWRCLE
OHIO REGIONAL WEATHER ROUNDUP
NATIONAL WEATHER SERVICE WILMINGTON, OH
100 PM EDT THU AUG 27 2015

NOTE: "FAIR" INDICATES FEW OR NO CLOUDS BELOW 12,000 FEET WITH NO
SIGNIFICANT WEATHER AND/OR OBSTRUCTIONS TO VISIBILITY.

OHZ001>008-015>018-024>027-034-035-043-044-271800-
   NORTHWEST OHIO

CITY           SKY/WX    TMP DP  RH WIND       PRES   REMARKS
DEFIANCE       CLOUDY    70  54  56 NW7       30.20F
FINDLAY        CLOUDY    70  54  56 N6        30.20F
TOLEDO EXPRESS PTSUNNY   70  54  56 N9        30.20F
TOLEDO EXEC    PTSUNNY   72  53  51 NW9       30.21F
LIMA           PTSUNNY   69  56  62 VRB5      30.20F
$$

OHZ009>014-019>023-028>033-038-089-271800-
   NORTHEAST OHIO

CITY           SKY/WX    TMP DP  RH WIND       PRES   REMARKS
CLE-HOPKINS    PTSUNNY   68  55  63 NW8       30.23S
CLE-LAKEFRONT  MOSUNNY   69  56  62 N8        30.20S
CUY CO. ARPT   PTSUNNY   68  57  68 N9        30.21S
LORAIN-ELYRIA  CLOUDY    69  56  62 N9        30.22R
ASHTABULA      PTSUNNY   67  56  67 NW8       30.21R
AKRON-CANTON   CLOUDY    69  56  62 NE7       30.20F
WOOSTER        NOT AVBL
MANSFIELD      CLOUDY    67  55  65 N8        30.22R
YOUNGSTOWN     CLOUDY    68  55  63 NW10      30.20S
$$

OHZ042-051>053-060>062-070>072-077>081-271800-
  SOUTHWEST OHIO

CITY           SKY/WX    TMP DP  RH WIND       PRES   REMARKS
CINC-COVINGTON PTSUNNY   72  57  59 N3        30.20S
CINC-LUNKEN    PTSUNNY   72  56  57 N10       30.20S
HAMILTON       PTSUNNY   73  57  57 VRB5      30.20F
DAYTON         NOT AVBL
WRIGHT-PAT AFB NOT AVBL
DAYTON GENERAL CLOUDY    70  53  54 N12       30.20F
WILMINGTON     CLOUDY    70  53  54 N6        30.21S
$$

OHZ036-037-039>041-045>050-054>059-063>069-073>076-082>088-271800-
  CENTRAL AND SOUTHEAST OHIO

CITY           SKY/WX    TMP DP  RH WIND       PRES   REMARKS
COLUMBUS       CLOUDY    71  54  54 VRB3      30.20R
OSU AIRPORT    CLOUDY    71  55  56 VRB3      30.20S
BOLTON FIELD   PTSUNNY   72  57  60 CALM      30.21S
RICKENBACK AFB NOT AVBL
NEWARK         CLOUDY    71  53  52 CALM      30.20R
MARION         CLOUDY    69  53  56 NW6       30.21S
LANCASTER      CLOUDY    70  54  56 CALM      30.21R
ZANESVILLE     PTSUNNY   75  50  41 N6        30.20S
NEW PHILLY     CLOUDY    70  56  61 NW5       30.20S
$$



USA.gov is the U.S. government's official web portal to all federal, state and local government web resources and services.